Location: Le Ch�teau
(44.2295°N, 6.2924°E)
Time: 07:11:54
(UTC+00:00)

Daily predictions for brighter satellites

Satellite Brightness Start Highest point End
(mag) Time Altitude Azimuth Time Altitude Azimuth Time Altitude Azimuth
Cosmos 1515 Rocket 3.7 19:16:17 10° N 19:20:47 88° WSW 19:25:14 10° S
Cosmos 389 Rocket 3.7 19:18:05 10° NNE 19:20:58 24° ENE 19:23:50 10° SE
SPOT 3 Rocket 4.0 19:16:07 10° SE 19:21:04 46° ENE 19:26:01 10° N
Cosmos 2251 Rocket 3.5 19:17:10 10° SSW 19:22:23 75° ESE 19:27:41 10° NNE
Cosmos 1812 4.0 19:19:41 10° NNE 19:22:54 25° ENE 19:26:05 10° SE
Cosmos 1727 Rocket 4.2 19:16:55 10° N 19:23:13 60° ENE 19:29:28 10° SSE
Cosmos 1656 4.0 19:22:21 10° NNW 19:27:43 52° ENE 19:33:06 10° SE
Cosmos 1633 3.2 19:26:42 10° SSW 19:30:10 58° W 19:33:41 10° N
Resurs 01 Rocket 2.3 19:28:08 10° SE 19:32:11 37° ENE 19:36:16 10° N
Cosmos 972 Rocket 3.9 19:29:19 10° NNW 19:34:20 71° ENE 19:39:12 10° SSE
Cosmos 1441 Rocket 3.8 19:33:56 10° SSE 19:37:25 35° E 19:40:52 10° NNE
Cosmos 614 Rocket 4.2 19:36:02 10° S 19:40:55 46° ESE 19:45:53 10° NNE
Cosmos 1900 4.4 19:39:16 10° SSW 19:44:12 90° N 19:49:15 10° NNE
MONITOR-E 4.2 19:44:50 10° S 19:47:09 53° W 19:49:30 10° NNW
IRIDIUM 103 4.3 19:44:00 10° S 19:49:08 65° E 19:54:19 10° N
USA 267 3.2 19:42:38 10° NE 19:49:09 66° SE 19:55:39 10° SW
Cosmos 1821 Rocket 4.1 19:45:19 10° SSE 19:51:16 56° E 19:57:19 10° NNE
COSMOS 2406 3.2 19:47:30 10° SSW 19:53:13 73° ESE 19:58:57 10° NNE
Shenzhou-11 Module 1.4 19:51:56 10° W 19:54:17 59° S 19:55:30 23° ESE
Cosmos 1743 Rocket 4.4 19:50:05 10° SSW 19:54:26 56° W 19:58:51 10° N
CZ-2C R/B 3.7 19:52:34 10° NNE 19:57:14 83° ESE 20:01:46 10° SSW
SL-16 R/B 4.4 19:55:41 10° NNE 19:57:55 12° NE 20:00:08 10° ENE
Intercosmos 25 3.4 19:54:31 10° N 19:58:53 58° ENE 20:01:26 16° SSE
Lacrosse 5 3.9 19:56:36 10° NW 20:00:29 21° NNE 20:04:21 10° ENE
Cosmos 1862 3.4 19:58:36 10° S 20:02:39 84° W 20:06:44 10° N
Sich 1 3.1 19:59:11 10° S 20:03:33 62° E 20:07:57 10° NNE
Cosmos 2369 4.1 19:58:19 10° NNW 20:03:56 52° ENE 20:08:05 18° SE
IRIDIUM 106 4.3 20:02:12 10° S 20:07:26 87° W 20:12:40 10° N
BREEZE-M DEB (TANK) 3.8 20:04:48 10° W 20:07:52 29° NNW 20:09:42 10° NE
Meteor 2-6 Rocket 4.5 20:02:35 10° NNW 20:08:03 69° W 20:13:39 10° S
Cosmos 2082 Rocket 2.6 20:03:11 10° S 20:08:25 40° ESE 20:13:41 10° NE
Cosmos 1818 3.6 20:03:03 10° NNW 20:08:32 72° NE 20:12:24 19° SE
Cosmos 2278 4.3 20:07:44 10° NNW 20:13:11 42° ENE 20:16:44 20° ESE
Cosmos 2123 Rocket 4.3 20:07:42 10° N 20:13:44 50° ENE 20:18:05 19° SE
Spot 2 Rocket 3.9 20:11:25 19° SE 20:14:51 49° ENE 20:19:45 10° N
Cosmos 1000 Rocket 4.5 20:10:58 10° N 20:17:15 85° E 20:23:05 12° S
Resurs 1-3 4.5 20:14:21 10° S 20:18:34 48° W 20:22:50 10° NNW
Cosmos 2239 Rocket 4.4 20:14:26 10° S 20:20:34 81° E 20:26:44 10° N
Cosmos 2322 Rocket 4.3 20:17:33 10° N 20:20:34 14° NE 20:23:36 10° ENE
Cosmos 1184 Rocket 3.8 20:21:02 28° E 20:21:12 28° E 20:24:04 10° NNE
Cosmos 1190 Rocket 4.0 20:16:02 10° S 20:21:13 63° ESE 20:26:28 10° NNE
Meteor 1-4 Rocket 2.9 20:18:00 10° N 20:21:20 42° ENE 20:22:26 31° ESE
Terra 3.4 20:21:08 17° E 20:23:01 21° ENE 20:26:31 10° NNE
USA 234 3.6 20:18:46 17° ESE 20:23:54 61° NNE 20:30:20 10° NW
Cosmos 407 Rocket 3.5 20:18:49 10° SSW 20:24:08 82° ESE 20:29:28 10° NNE
Cosmos 1605 Rocket 4.5 20:21:08 20° SE 20:24:47 39° E 20:30:23 10° NNE
CZ-2C R/B 4.1 20:20:04 10° N 20:24:49 37° WNW 20:29:33 10° SW
Cosmos 1666 Rocket 3.4 20:21:27 14° S 20:25:09 70° E 20:29:28 10° NNE
SL-8 R/B 4.1 20:21:40 10° WNW 20:26:22 51° SSW 20:28:49 26° SSE
Cosmos 1238 Rocket 4.0 20:28:02 18° ENE 20:28:02 18° ENE 20:29:27 10° NE
MetOp-B 4.1 20:25:45 18° SSE 20:29:46 88° ENE 20:35:10 10° NNW
Meteor 1-27 Rocket 3.9 20:26:15 10° NNW 20:32:12 85° W 20:36:54 17° S
USA 238 DEB 3.9 20:30:51 10° S 20:37:00 43° ESE 20:43:22 10° NE
USA 238 3.9 20:30:59 10° S 20:37:06 43° ESE 20:43:28 10° NE
SPOT 5 3.5 20:35:54 27° ESE 20:37:13 33° ENE 20:41:07 10° N
BREEZE-M DEB (TANK) 3.5 20:34:42 10° WNW 20:37:59 20° SW 20:39:00 17° SSW
SPOT 1/Viking Rocket 3.5 20:39:53 28° SSE 20:42:40 72° ENE 20:47:53 10° N
Cosmos 1980 Rocket 2.3 20:38:47 10° NNW 20:44:27 65° ENE 20:47:05 32° SE
Cosmos 2242 Rocket 4.4 20:42:38 10° N 20:46:41 33° ENE 20:47:29 31° E
SL-4 R/B 1.8 20:43:28 10° WSW 20:47:26 82° NNW 20:51:07 10° ENE
BREEZE-M DEB (TANK) 3.5 20:46:09 10° WNW 20:48:55 46° N 20:55:58 10° ENE
Cosmos 405 Rocket 3.5 20:49:22 32° ENE 20:49:22 32° ENE 20:52:18 10° NNE
Cosmos 1140 Rocket 3.6 20:44:34 10° SSW 20:49:49 78° WNW 20:55:06 10° NNE
Genesis I 3.6 20:46:05 10° NNW 20:49:52 51° NE 20:50:44 42° E
ATLAS 5 CENTAUR R/B 3.5 20:47:31 10° NW 20:52:57 38° WSW 20:57:17 18° S
USA 32 3.9 20:53:02 28° S 20:55:50 77° E 21:01:05 10° N
Cosmos 1633 Rocket 3.5 20:55:05 17° SSW 20:58:28 62° W 21:02:51 10° N
Cosmos 1833 Rocket 3.5 20:53:40 10° SW 20:59:07 51° WNW 21:04:37 10° NNE
Cosmos 1697 Rocket 3.2 20:54:38 10° NW 21:00:05 53° WSW 21:03:04 26° S
Cosmos 1867 3.5 21:00:04 10° SSW 21:05:31 88° ESE 21:11:01 10° NE
CENTAUR R/B 2.8 21:04:46 37° SE 21:05:34 38° ESE 21:11:44 10° NE
Meteor 1-18 Rocket 4.3 21:02:41 10° N 21:08:13 58° ENE 21:09:49 42° SE
Okean 1-7 3.8 21:04:21 10° N 21:08:22 36° ENE 21:08:30 36° E
Resurs 01 Rocket 3.7 21:05:19 10° SW 21:08:46 22° W 21:12:15 10° NW
FALCON 9 DEB 3.5 21:09:39 10° WSW 21:13:07 63° NNW 21:15:22 20° NE
Cosmos 1850 Rocket 4.4 21:14:18 43° ESE 21:14:32 43° ESE 21:19:31 10° NNE
Cosmos 1447 Rocket 4.5 21:09:04 10° N 21:15:27 72° E 21:17:47 41° SSE
Meteor 2-4 Rocket 4.3 21:12:31 10° N 21:17:50 39° ENE 21:18:54 35° E
Cosmos 676 Rocket 4.3 21:14:02 13° SSW 21:18:43 70° WNW 21:24:05 10° NNE
Cosmos 1515 4.3 21:15:05 10° N 21:18:23 43° ENE 21:18:23 43° ENE
Meteor 1-25 Rocket 4.2 21:17:53 29° SSW 21:20:52 80° W 21:26:31 10° N
Cosmos 1470 Rocket 3.9 21:19:30 36° SSW 21:21:10 64° W 21:25:33 10° N
Cosmos 192 4.4 21:16:54 10° NNW 21:21:48 72° WSW 21:22:57 51° S
ATLAS 5 CENTAUR R/B 3.8 21:19:31 10° N 21:21:57 22° NE 21:23:25 19° ENE
GP-B 4.4 21:24:21 10° NNW 21:28:27 37° W 21:30:41 22° SW
NOSS 3-2 (A) 3.3 21:25:54 10° SW 21:31:33 85° NW 21:38:04 10° NE
USA 267 4.2 21:25:48 10° NE 21:32:01 48° NNW 21:38:14 10° W
Cosmos 921 Rocket 3.0 21:30:32 10° NNW 21:34:44 67° WSW 21:34:50 67° WSW
NOSS 3-2 (C) 3.2 21:35:51 47° S 21:37:27 68° ESE 21:43:49 10° NE
ERS-1 Rocket 3.4 21:36:08 41° SSW 21:37:30 54° W 21:42:26 10° NNW
Cosmos 841 Rocket 4.2 21:36:30 10° N 21:41:24 39° ENE 21:42:00 38° E
Cosmos 540 Rocket 4.2 21:38:00 10° N 21:42:51 39° ENE 21:43:22 38° ENE
SL-16 R/B 2.4 21:37:42 10° NNW 21:43:19 58° ENE 21:44:17 51° E
Lacrosse 5 2.4 21:39:30 10° NW 21:44:27 50° NE 21:45:31 43° ENE
Cosmos 468 Rocket 3.8 21:39:47 10° NNW 21:45:08 89° ENE 21:45:45 70° SSE
Cosmos 1741 Rocket 3.8 21:48:23 72° S 21:48:53 82° ESE 21:54:11 10° NNE
Cosmos 2082 Rocket 3.7 21:47:24 10° WSW 21:52:33 34° NW 21:57:43 10° N
Cosmos 1570 Rocket 4.4 21:47:34 10° NNW 21:52:45 51° ENE 21:53:10 49° E
Cosmos 2219 Rocket 4.4 21:50:32 10° N 21:53:50 15° NE 21:56:38 11° ENE
Terra 2.3 22:00:02 48° WSW 22:00:25 49° W 22:05:03 10° NNW
Cosmos 2322 Rocket 2.2 22:00:01 10° NNW 22:05:43 70° ENE 22:06:13 66° E
Cosmos 2100 Rocket 3.9 22:05:35 59° SSW 22:06:50 85° W 22:13:01 10° N
USA 234 3.6 22:06:06 44° SSW 22:07:02 46° SW 22:13:18 10° WNW
Meteor 1-11 Rocket 4.0 22:09:09 54° E 22:09:09 54° E 22:14:27 10° NNE
Cosmos 1437 Rocket 4.1 22:08:06 10° NNW 22:10:50 35° WNW 22:10:50 35° WNW
Cosmos 1869 Rocket 4.0 22:13:01 61° NW 22:13:01 61° NW 22:17:00 10° N
SPOT 5 4.3 22:15:08 23° W 22:15:23 23° W 22:18:51 10° NW
Cosmos 2360 Rocket 2.6 22:14:21 10° NNW 22:19:54 50° ENE 22:20:19 49° ENE
ATLAS 3B R/B 2.9 22:21:12 49° E 22:21:12 49° E 22:26:51 10° NE
Geosat 3.9 22:20:48 83° N 22:20:48 83° N 22:25:41 10° NNW
Iridium 4 Rocket 3.7 22:21:44 55° NW 22:21:44 55° NW 22:25:20 10° N
Cosmos 2173 Rocket 4.1 22:21:11 56° SW 22:22:25 70° W 22:28:34 10° N
ALOS 2 3.9 22:27:44 34° NE 22:27:44 34° NE 22:30:55 10° N
SL-4 R/B 3.7 22:24:05 10° WNW 22:27:13 28° NNW 22:27:13 28° NNW
Cosmos 1725 Rocket 3.9 22:27:19 71° SE 22:27:42 74° E 22:34:01 10° NNE
Cosmos 1980 Rocket 4.0 22:23:57 10° NW 22:27:52 19° W 22:28:51 19° WSW
Cosmos 1763 Rocket 4.3 22:26:14 10° NNW 22:31:09 42° W 22:31:09 42° W
SL-08 R/B 4.2 22:32:19 80° SE 22:32:33 82° E 22:38:40 10° N
Cosmos 1536 4.4 22:34:39 32° NNE 22:34:39 32° NNE 22:36:53 10° NNE
Cosmos 2333 Rocket 3.4 22:35:07 10° N 22:40:17 32° NE 22:41:19 30° ENE
Cosmos 2016 Rocket 4.0 22:39:51 67° SW 22:40:37 75° W 22:47:02 10° N
Cosmos 2061 Rocket 3.9 22:41:22 67° SW 22:42:02 74° W 22:48:16 10° N
Lacrosse 4 Rocket 3.8 22:45:24 16° NE 22:45:24 16° NE 22:46:22 10° NE
Meteor 1-13 Rocket 4.3 22:38:03 10° NNW 22:43:23 66° W 22:43:23 66° W
MOS 1-B Rocket 4.0 22:40:30 10° N 22:46:06 62° WNW 22:46:44 58° WSW
Cosmos 1733 Rocket 4.1 22:50:59 43° N 22:50:59 43° N 22:54:01 10° N
Cosmos 1864 Rocket 4.5 22:53:23 67° WSW 22:53:52 70° W 23:00:06 10° N
Cosmos 1066 Rocket 4.2 22:48:21 10° N 22:53:46 80° N 22:53:46 80° N
Meteor 1-23 Rocket 4.2 22:50:04 10° N 22:55:43 83° NNE 22:55:43 83° NNE
CENTAUR R/B 3.4 22:51:50 19° WSW 22:56:04 47° NW 23:02:58 10° NNE
Thor Agena Rocket 3.8 22:52:18 10° N 22:57:00 63° NW 22:57:00 63° NW
Cosmos 967 Rocket 4.4 22:54:51 10° NW 23:01:03 73° WSW 23:01:03 73° WSW
Cosmos 44 4.2 22:58:02 10° NW 23:01:33 44° WNW 23:01:33 44° WNW
Cosmos 2233 Rocket 3.9 23:14:31 76° WSW 23:14:42 77° W 23:21:04 10° N
SL-16 R/B 3.9 23:22:43 10° NW 23:26:08 21° W 23:26:08 21° W
Lacrosse 5 3.7 23:22:43 10° WNW 23:24:41 21° WNW 23:24:41 21° WNW
Cosmos 1833 4.5 23:28:44 60° WNW 23:28:44 60° WNW 23:34:18 10° NNE
Cosmos 2322 3.8 23:24:31 10° NNW 23:29:31 70° NNW 23:29:31 70° NNW
Cosmos 2219 Rocket 2.3 23:33:04 10° NNW 23:38:19 71° NNE 23:38:19 71° NNE
Cosmos 2034 Rocket 4.4 23:43:53 50° E 23:43:53 50° E 23:49:55 10° NNE
Cosmos 1975 Rocket 4.3 23:39:24 10° N 23:42:25 40° NNE 23:42:25 40° NNE
Cosmos 1503 Rocket 4.4 23:45:55 60° NE 23:45:55 60° NE 23:50:20 10° NNE
Cosmos 1072 Rocket 4.4 23:46:51 78° ENE 23:46:51 78° ENE 23:52:45 10° N
Cosmos 2322 Rocket 4.2 23:45:25 10° WNW 23:48:01 17° W 23:48:01 17° W
SL-16 R/B 4.4 23:46:15 15° E 23:49:37 23° ENE 23:54:19 10° N
Cosmos 1891 Rocket 4.4 23:53:06 86° SE 23:53:10 87° E 23:59:39 10° N
CZ-2D R/B 4.3 23:51:34 10° NE 23:54:45 15° E 23:54:54 15° E
